Home > Weather > Gorgan > Past weeks

Flag for Iran Past Weather in Gorgan, Iran — Yesterday and Last 2 Weeks

Now
95 °F

Sunny.


Feels Like: 92 °F
Forecast: 71 / 96 °F
Wind: 5 mph from Northwest

Location: Gorgan Airport

Current Time: Aug 26, 2016 at 1:16:27 PM

Latest Report: Aug 26, 2016 at 12:30 PM


Visibility: 10 mi

Pressure: 29.92 "Hg

Humidity: 23%

Dew Point: 52 °F

Location of GorganLocation

Past Weather in Gorgan — Graph

°F

Gorgan Temperature Yesterday

Maximum temperature yesterday: 95 °F (at 1:00 PM)
Minimum temperature yesterday: 68 °F (at 6:30 AM)
Average temperature yesterday: 82 °F

High & Low Weather Summary for the Past Weeks

 TemperatureHumidityPressure
High104 °F (Aug 11, 3:30 PM)94% (Aug 13, 2:30 AM)30.01 "Hg (Aug 13, 2:30 AM)
Low63 °F (Aug 26, 5:30 AM)26% (Aug 25, 4:30 PM)29.68 "Hg (Aug 12, 2:30 AM)
Average85 °F64%29.88 "Hg
* Reported Aug 11 11:30 AM — Aug 26 11:30 AM, Gorgan, Weather by CustomWeather, © 2016

Note: Actual official high and low records may vary slightly from our data, if they occured in-between our weather recording intervals... More about our weather records

Advertising

Gorgan Weather History for the Previous 24 Hours

Scroll right to see more
 ConditionsComfort  
Time TempWeatherWind HumidityBarometerVisibility
11:30 AM
Fri, Aug 26
91 °FSunny.7 mph32%29.95 "Hg10 mi
10:30 AM88 °FSunny.5 mph40%29.95 "Hg10 mi
10:00 AM86 °FSunny.No wind40%29.98 "Hg10 mi
9:30 AM84 °FSunny.No wind43%29.95 "Hg10 mi
8:30 AM77 °FSunny.5 mph54%29.95 "Hg10 mi
7:30 AM64 °FClear.No wind83%29.92 "Hg10 mi
6:30 AM63 °FClear.No wind88%29.89 "Hg10 mi
5:30 AM63 °FClear.No wind83%29.89 "Hg10 mi
4:30 AM64 °FClear.No wind83%29.89 "Hg10 mi
3:30 AM66 °FClear.No wind78%29.89 "Hg10 mi
2:30 AM66 °FClear.No wind78%29.89 "Hg10 mi
1:30 AM68 °FClear.No wind73%29.89 "Hg10 mi
12:30 AM68 °FClear.No wind78%29.92 "Hg10 mi
11:30 PM
Thu, Aug 25
68 °FClear.No wind69%29.95 "Hg10 mi
10:30 PM72 °FClear.No wind65%29.95 "Hg10 mi
9:30 PM75 °FClear.7 mph54%29.92 "Hg10 mi
8:30 PM81 °FSunny.12 mph45%29.92 "Hg10 mi
7:30 PM86 °FSunny.12 mph35%29.89 "Hg10 mi
6:30 PM90 °FSunny.12 mph33%29.89 "Hg10 mi
5:30 PM95 °FSunny.16 mph26%29.89 "Hg10 mi
4:30 PM95 °FSunny.16 mph26%29.89 "Hg10 mi
3:30 PM95 °FSunny.9 mph32%29.89 "Hg10 mi
2:30 PM95 °FPassing clouds.9 mph34%29.89 "HgN/A
1:30 PM93 °FPassing clouds.12 mph39%29.92 "HgN/A
1:00 PM95 °FPassing clouds.14 mph36%29.92 "HgN/A
Weather by CustomWeather, © 2016

See weather overviewHow to use our weather pages